Regional Weather Roundup
Issued by NWS Portland, ME

Current Version | Previous Version | Text Only | Print | Product List | Glossary Off
Versions: 1 2 3 4 5 6 7 8 9 10 11 12 13 14 15 16 17 18 19 20 21 22 23 24 25 26 27 28 29 30 31 32 33 34 35 36 37 38 39 40 41 42 43 44 45 46 47 48 49 50
000 ASUS41 KGYX 200210 RWRGYX WEATHER ROUNDUP FOR MAINE AND NEW HAMPSHIRE NATIONAL WEATHER SERVICE GRAY ME 1000 PM EDT TUE SEP 19 2017 MEZ002-005-006-010-012-015-018-020-021-024-026-027-029-200300- MAINE CITY SKY/WX TMP DP RH WIND PRES REMARKS PORTLAND CLOUDY 65 65 100 VRB7 30.07S FOG SANFORD CLOUDY 65 65 100 NE10 30.06F FOG BAR HARBOR CLOUDY 65 64 97 E5 30.10F FOG WISCASSET CLOUDY 67 66 97 VRB3 30.09F FOG ROCKLAND FOG 64 64 100 NE7 30.09S VSB 3/4 FRYEBURG CLOUDY 67 66 97 N5 30.10S LEWISTONAUBURN CLOUDY 66 65 96 N5 30.10R AUGUSTA CLOUDY 66 65 96 NE6 30.10S WATERVILLE CLOUDY 66 66 100 N5 30.08S BANGOR CLOUDY 68 65 90 NE6 30.11R GREENVILLE N/A 63 62 97 CALM 30.13S MILLINOCKET CLOUDY 64 64 100 SE3 30.14S HOULTON PTCLDY 58 58 100 CALM 30.12F PRESQUE ISLE CLEAR 61 59 93 SW3 30.13S FRENCHVILLE MOCLDY 62 58 86 S6 30.12R CARIBOU CLEAR 63 60 90 W3 30.12R $$ NHZ002-005-008-009-011-012-014-200300- NEW HAMPSHIRE CITY SKY/WX TMP DP RH WIND PRES REMARKS PORTSMOUTH CLOUDY 64 64 100 NE10 30.03S FOG ROCHESTER CLOUDY 66 63 90 N7 30.05S NASHUA CLOUDY 67 66 97 VRB5 30.04R MANCHESTER CLOUDY 67 65 93 NE10 30.02S CONCORD CLOUDY 68 64 87 NE9 30.05S LACONIA CLOUDY 67 64 90 NE10 30.08S PLYMOUTH CLOUDY 68 63 84 CALM 30.07S BERLIN CLOUDY 66 60 81 CALM 30.11F WHITEFIELD PTCLDY 66 60 81 SE5 30.10R JAFFREY CLOUDY 65 65 100 VRB5 30.05S KEENE CLOUDY 69 64 84 N5 30.04R LEBANON CLOUDY 69 64 84 N3 30.06S MT WASHINGTON DRZL/FOG 50 50 100 SE17 N/A VSB 1/16 $$ VTZ005-007-008-200300- VERMONT CITY SKY/WX TMP DP RH WIND PRES REMARKS ST JOHNSBURY N/A 63 62 97 MISG 30.07R MONTPELIER PTCLDY 58 58 100 CALM 30.13R BURLINGTON PTCLDY 67 60 78 NE3 30.04S $$ MAZ007-012-024-CTZ003-RIZ002-NYZ038-NYZ072-200300- SOUTHERN NEW ENGLAND AND NY CITY SKY/WX TMP DP RH WIND PRES REMARKS BOSTON LGT RAIN 63 63 100 N15 30.00R VSB 1 WORCESTER FOG 63 62 97 NE12G22 30.00F VSB 1/4 NANTUCKET CLOUDY 66 66 100 NE18G25 29.85F PROVIDENCE LGT RAIN 66 66 100 NE17 29.94S HARTFORD MOCLDY 69 65 86 N14 29.95F ALBANY MOCLDY 68 60 75 N3 30.01S NEW YORK CITY CLOUDY 72 66 81 N15G24 29.87F $$ ANZ081-ANZ082-ANZ150-NHZ014-MEZ023>029-200300- COASTAL MARINE OBSERVATIONS STATION/POSITION TIME TEMP WIND PRES WAVE AIR SEA DIR/SP/G HT/PER (UTC) (F) (DEG/KT/KT) (MB) (FT/S) MOUNT DESERT ROC 0200 57 30/ 16/ 17 1018.7F MATINICUS ROCK 0200 56 50/ 16/ 17 1017.8S ISLE OF SHOALS 0200 61 20/ 20/ 22 1016.4S JEFFREYS LEDGE 0136 63 N/A 6/12 GEORGES BANK BUO 0050 76 69 1012.2 12/13 $$ .............KEY.............. WCI - WIND CHILL TC - TEMPERATURE IN CELSIUS VSB - VISIBILITY IN MILES HX - HEAT INDEX FAIR- INDICATES FEW OR NO CLOUDS BELOW 12,000 FT, WITH NO SIGNIFICANT WEATHER AND/OR OBSTRUCTIONS TO VISIBILITY.

USA.gov is the U.S. government's official web portal to all federal, state and local government web resources and services.